Lawrence, KS

6:57 AM CDT on August 26, 2016 (GMT -0500)
Lawrence Municipal

Weather History for KLWC - June, 2013

Change the Weather History Date:

Saturday, June 29, 2013

  Actual Average Record
Temperature  
Mean Temperature 74 °F 77 °F  
Max Temperature 87 °F 88 °F 103 °F (2012)
Min Temperature 60 °F 66 °F 52 °F (2004)
Degree Days  
Heating Degree Days 0 0  
Month to date heating degree days 13 6  
Since 1 June heating degree days 13 6  
Since 1 July heating degree days 5283 5090  
Cooling Degree Days 9 12  
Month to date cooling degree days 307 264  
Year to date cooling degree days 434 383  
Since 1 June cooling degree days 307 264  
Growing Degree Days 23 (Base 50)    
Moisture  
Dew Point 56 °F    
Average Humidity 58    
Maximum Humidity 84    
Minimum Humidity 32    
Precipitation  
Precipitation 0.00 in 0.15 in 0.18 in (2007)
Month to date precipitation 1.35 5.31  
Year to date precipitation 15.66 19.20  
Sea Level Pressure  
Sea Level Pressure 29.86 in    
Wind  
Wind Speed 13 mph (NNW)    
Max Wind Speed 31 mph    
Max Gust Speed 40 mph    
Visibility 10 miles    
Events      
T = Trace of Precipitation, MM = Missing Value Source: NWS Daily Summary

Daily Weather History Graph

Daily Weather History Graph

Search for Another Location

Airport or City:

Trip Planner

Search our weather history database for the weather conditions in past years. The results will help you decide how hot, cold, wet, or windy it might be!

Date:

Astronomy

Jun. 29, 2013 Rise Set
Actual Time 5:58 AM CDT 8:50 PM CDT
Civil Twilight 5:26 AM CDT 9:22 PM CDT
Nautical Twilight 4:45 AM CDT 10:02 PM CDT
Astronomical Twilight 3:59 AM CDT 10:49 PM CDT
Moon 12:23 AM CDT (6/29) 1:06 PM CDT (6/29)
Length of Visible Light 15h 56m
Length of Day
14h 52m
Waning Gibbous, 55% of the Moon is Illuminated
Jun 29
Waning Gibbous
Jun 29
Last Quarter
Jul 8
New
Jul 15
First Quarter
Jul 22
Full

Hourly Weather History & Observations

Time (CDT) Temp. Heat Index Dew Point Humidity Pressure Visibility Wind Dir Wind Speed Gust Speed Precip Events Conditions
12:52 AM 64.9 °F - 59.0 °F 81% 29.87 in 10.0 mi Calm Calm - N/A   Clear
1:52 AM 63.0 °F - 57.9 °F 84% 29.87 in 10.0 mi NW 3.5 mph - N/A   Clear
2:52 AM 64.0 °F - 57.0 °F 78% 29.86 in 10.0 mi NW 5.8 mph - N/A   Clear
3:52 AM 64.0 °F - 57.0 °F 78% 29.87 in 10.0 mi NW 4.6 mph - N/A   Clear
4:52 AM 60.1 °F - 55.9 °F 86% 29.87 in 10.0 mi WNW 4.6 mph - N/A   Clear
5:52 AM 60.1 °F - 55.9 °F 86% 29.88 in 10.0 mi WNW 5.8 mph - N/A   Clear
6:52 AM 64.0 °F - 57.9 °F 80% 29.89 in 10.0 mi NW 5.8 mph - N/A   Clear
7:52 AM 69.1 °F - 60.1 °F 73% 29.89 in 10.0 mi WNW 6.9 mph - N/A   Clear
8:52 AM 75.0 °F - 59.0 °F 57% 29.88 in 10.0 mi NW 10.4 mph - N/A   Clear
9:52 AM 79.0 °F - 59.0 °F 50% 29.88 in 10.0 mi NW 15.0 mph - N/A   Clear
10:52 AM 82.0 °F 82.0 °F 57.9 °F 44% 29.88 in 10.0 mi NW 13.8 mph - N/A   Clear
11:52 AM 84.0 °F 83.0 °F 55.9 °F 38% 29.87 in 10.0 mi NW 21.9 mph 32.2 mph N/A   Partly Cloudy
12:52 PM 82.9 °F - 52.0 °F 34% 29.86 in 10.0 mi NNW 16.1 mph 31.1 mph N/A   Scattered Clouds
1:52 PM 84.9 °F - 52.0 °F 32% 29.84 in 10.0 mi NNW 20.7 mph 34.5 mph N/A   Scattered Clouds
2:52 PM 84.9 °F - 51.1 °F 31% 29.83 in 10.0 mi NNW 23.0 mph 35.7 mph N/A   Clear
3:52 PM 86.0 °F 84.2 °F 54.0 °F 33% 29.83 in 10.0 mi NW 26.5 mph 34.5 mph N/A   Partly Cloudy
4:52 PM 84.0 °F 82.5 °F 53.1 °F 34% 29.82 in 10.0 mi NNW 27.6 mph 34.5 mph N/A   Partly Cloudy
5:52 PM 82.0 °F 81.3 °F 54.0 °F 38% 29.82 in 10.0 mi NNW 21.9 mph 31.1 mph N/A   Partly Cloudy
6:52 PM 81.0 °F 81.0 °F 57.0 °F 44% 29.83 in 10.0 mi NNE 17.3 mph 27.6 mph N/A   Mostly Cloudy
7:52 PM 78.1 °F - 57.0 °F 48% 29.84 in 10.0 mi North 17.3 mph 24.2 mph N/A   Scattered Clouds
8:52 PM 73.9 °F - 57.0 °F 55% 29.86 in 10.0 mi North 10.4 mph - N/A   Scattered Clouds
9:52 PM 68.0 °F - 57.9 °F 70% 29.88 in 10.0 mi North 5.8 mph - N/A   Clear
10:52 PM 64.9 °F - 57.0 °F 75% 29.89 in 10.0 mi NNW 6.9 mph - N/A   Clear
11:52 PM 62.1 °F - 57.0 °F 84% 29.89 in 10.0 mi NNW 6.9 mph - N/A   Clear